Lancaster, PA

10:53 AM EST on December 14, 2017 (GMT -0500)
Lancaster

Weather History for KLNS - October, 2011

Change the Weather History Date:

Thursday, October 27, 2011

  Actual Average Record
Temperature  
Mean Temperature 50 °F -  
Max Temperature 60 °F 62 °F 81 °F (1984)
Min Temperature 39 °F 42 °F 26 °F (1988)
Degree Days  
Heating Degree Days 16    
Moisture  
Dew Point 48 °F    
Average Humidity 88    
Maximum Humidity 94    
Minimum Humidity 73    
Precipitation  
Precipitation 0.27 in - - ()
Sea Level Pressure  
Sea Level Pressure 29.71 in    
Wind  
Wind Speed 5 mph (NW)    
Max Wind Speed 20 mph    
Max Gust Speed 25 mph    
Visibility 6 miles    
Events Rain    
Averages and records for this station are not official NWS values.
T = Trace of Precipitation, MM = Missing Value Source: NWS Daily Summary

Daily Weather History Graph

Daily Weather History Graph

Search for Another Location

Airport or City:

Trip Planner

Search our weather history database for the weather conditions in past years. The results will help you decide how hot, cold, wet, or windy it might be!

Date:

Astronomy

Oct. 27, 2011 Rise Set
Actual Time 7:28 AM EDT 6:09 PM EDT
Civil Twilight 7:00 AM EDT 6:36 PM EDT
Nautical Twilight 6:28 AM EDT 7:08 PM EDT
Astronomical Twilight 5:57 AM EDT 7:40 PM EDT
Moon 8:28 AM EDT (10/27) 6:36 PM EDT (10/27)
Length of Visible Light 11h 36m
Length of Day
10h 40m
New Moon, 1% of the Moon is Illuminated
Oct 27
New Moon
Nov 2
First Quarter
Nov 10
Full
Nov 18
Last Quarter
Nov 25
New

Hourly Weather History & Observations

Time (EDT) Temp. Windchill Dew Point Humidity Pressure Visibility Wind Dir Wind Speed Gust Speed Precip Events Conditions
12:53 AM 55.9 °F - 52.0 °F 87% 29.74 in 8.0 mi SW 3.5 mph - N/A   Overcast
1:53 AM 55.9 °F - 52.0 °F 87% 29.71 in 7.0 mi Calm Calm - 0.00 in Rain Light Rain
4:53 AM 55.0 °F - 53.1 °F 93% 29.66 in 5.0 mi Calm Calm - 0.02 in Rain Light Rain
5:53 AM 55.0 °F - 53.1 °F 93% 29.67 in 4.0 mi Calm Calm - 0.01 in Rain Light Rain
6:53 AM 57.9 °F - 55.0 °F 90% 29.66 in 5.0 mi SW 3.5 mph - 0.02 in Rain Light Rain
7:53 AM 57.9 °F - 55.0 °F 90% 29.65 in 6.0 mi SW 4.6 mph - 0.03 in Rain Light Rain
8:53 AM 57.9 °F - 55.0 °F 90% 29.65 in 7.0 mi Calm Calm - 0.01 in   Overcast
9:53 AM 59.0 °F - 55.9 °F 90% 29.64 in 6.0 mi Calm Calm - N/A   Mostly Cloudy
10:49 AM 59.0 °F - 55.4 °F 88% 29.64 in 5.0 mi NW 3.5 mph - 0.00 in   Overcast
10:53 AM 60.1 °F - 55.9 °F 86% 29.64 in 5.0 mi WNW 3.5 mph - 0.00 in   Overcast
11:00 AM 59.0 °F - 55.4 °F 88% 29.64 in 4.0 mi West 5.8 mph - N/A   Overcast
11:36 AM 59.0 °F - 55.4 °F 88% 29.64 in 5.0 mi West 6.9 mph - 0.01 in   Overcast
11:44 AM 59.0 °F - 55.4 °F 88% 29.64 in 4.0 mi West 6.9 mph - 0.01 in   Overcast
11:51 AM 59.0 °F - 57.2 °F 94% 29.64 in 3.0 mi West 5.8 mph - 0.01 in   Overcast
11:53 AM 59.0 °F - 57.0 °F 93% 29.64 in 3.0 mi West 6.9 mph - 0.01 in   Overcast
12:22 PM 57.2 °F - 53.6 °F 88% 29.63 in 4.0 mi North 8.1 mph - 0.01 in Rain Light Rain
12:53 PM 55.9 °F - 53.1 °F 90% 29.62 in 7.0 mi North 8.1 mph - 0.02 in Rain Light Rain
1:13 PM 55.4 °F - 53.6 °F 94% 29.61 in 8.0 mi Calm Calm - 0.00 in   Overcast
1:20 PM 55.4 °F - 53.6 °F 94% 29.60 in 8.0 mi North 3.5 mph - 0.00 in   Overcast
1:53 PM 55.0 °F - 53.1 °F 93% 29.59 in 4.0 mi North 4.6 mph - 0.00 in Rain Light Rain
2:09 PM 55.4 °F - 53.6 °F 94% 29.60 in 2.5 mi NNW 4.6 mph - 0.00 in Rain Light Rain
2:41 PM 53.6 °F - 51.8 °F 94% 29.59 in 3.0 mi North 11.5 mph - 0.01 in Rain Light Rain
2:53 PM 53.1 °F - 51.1 °F 93% 29.59 in 5.0 mi North 8.1 mph - 0.01 in Rain Light Rain
3:53 PM 53.1 °F - 51.1 °F 93% 29.62 in 3.0 mi NW 10.4 mph - 0.00 in Rain Light Rain
3:59 PM 51.8 °F - 50.0 °F 94% 29.61 in 1.8 mi NW 6.9 mph - 0.01 in Rain Light Rain
4:09 PM 51.8 °F - 50.0 °F 94% 29.62 in 3.0 mi NNW 9.2 mph - 0.01 in Rain Light Rain
4:53 PM 50.0 °F - 48.0 °F 93% 29.66 in 1.8 mi NNW 12.7 mph 19.6 mph 0.04 in Rain Rain
5:08 PM 48.2 °F - 46.4 °F 93% 29.67 in 2.5 mi NNW 19.6 mph 25.3 mph 0.04 in Rain Rain
5:16 PM 48.2 °F - 44.6 °F 87% 29.69 in 5.0 mi NNW 15.0 mph 25.3 mph 0.04 in Rain Light Rain
5:53 PM 46.9 °F - 44.1 °F 90% 29.71 in 4.0 mi NNW 8.1 mph - 0.09 in Rain Rain
6:05 PM 46.4 °F 41.9 °F 44.6 °F 93% 29.73 in 8.0 mi NNW 9.2 mph 17.3 mph 0.00 in Rain Light Rain
6:13 PM 46.4 °F 40.7 °F 44.6 °F 93% 29.74 in 10.0 mi NW 12.7 mph - 0.01 in Rain Light Rain
6:45 PM 44.6 °F 39.2 °F 41.0 °F 87% 29.78 in 10.0 mi NW 10.4 mph - 0.01 in   Overcast
6:53 PM 45.0 °F 38.9 °F 39.9 °F 82% 29.79 in 10.0 mi NNW 12.7 mph - 0.01 in   Overcast
7:23 PM 44.6 °F 39.7 °F 39.2 °F 81% 29.83 in 10.0 mi NW 9.2 mph - N/A   Mostly Cloudy
7:53 PM 43.0 °F 36.8 °F 37.9 °F 82% 29.86 in 10.0 mi NNW 11.5 mph 21.9 mph N/A   Overcast
8:53 PM 42.1 °F 35.7 °F 36.0 °F 79% 29.92 in 10.0 mi NW 11.5 mph - N/A   Overcast
9:27 PM 42.8 °F 37.5 °F 35.6 °F 76% 29.95 in - NNW 9.2 mph 18.4 mph N/A   Unknown
9:53 PM 41.0 °F 35.2 °F 35.1 °F 79% 29.98 in 10.0 mi NNW 9.2 mph - N/A   Overcast
10:53 PM 41.0 °F 34.7 °F 33.1 °F 73% 30.01 in 10.0 mi NW 10.4 mph - N/A   Mostly Cloudy
11:31 PM 39.2 °F 34.2 °F 33.8 °F 81% 30.03 in 10.0 mi NNW 6.9 mph - N/A   Mostly Cloudy
11:53 PM 39.9 °F 35.1 °F 33.1 °F 77% 30.04 in 10.0 mi NNW 6.9 mph - N/A   Mostly Cloudy